Zurück zum Katalog

OV1-20/OV1-21 AKM

AktivPO
NORAD 5395·ROCKET BODY·🇺🇸 United States

Gestartet Aug 7, 1971 von Vandenberg Space Force Base

Loading…

Nächste Überflüge (nächste 24 Stunden)

TLE

AktuellSource: Space-Track

Epoche: Sep 14, 2026, 14:18 UTC

1 05395U 71067K   26257.59634595  .00000526  00000-0  15005-3 0  9998
2 05395  87.6128 292.8136 0056873 103.7129 257.0413 14.42510614870475

Verfolge OV1-20/OV1-21 AKM in Echtzeit mit AllMySat

Download on the App Store